{"data":{"norad_id":56489,"intl_designator":"2023-064AT","name":"STARLINK-5923","alt_names":[],"object_type":"PAYLOAD","status":"ACTIVE","operator":null,"country":"US","launch_date":"2023-05-10","launch_site_code":"AFWTR","launch_vehicle":null,"mission":null,"orbit_class":"UNKNOWN","rcs_meters":null,"size_class":null,"mass_kg":null,"dimensions":null,"purposes":["comms"],"wikipedia_slug":null,"has_3d_model":false,"image_url":null,"decayed_at":null,"tle_current":{"epoch":"2026-09-20T21:46:46.164864Z","epoch_age_seconds":76788,"freshness":"FRESH","line1":"1 56489U 23064AT  26263.90747876  .00000064  00000+0  13143-4 0  9999","line2":"2 56489  70.0000 332.2694 0003480 270.9415  89.1345 14.98328726185478","mean_motion":14.98328726,"eccentricity":0.000348,"inclination_deg":70,"raan_deg":332.2694,"arg_perigee_deg":270.9415,"mean_anomaly_deg":89.1345,"bstar":1.3143e-5,"rev_number":18547,"period_min":96.10708084362,"perigee_km":569.64116219004,"apogee_km":574.4784991842,"semimajor_km":6950.1968306871,"source":"CELESTRAK","updated_at":"2026-09-21T09:00:33.449275Z"}}}